When you browse on this site, cookies collect data to enhance your experience and personalize the content and advertising you see.
Visit our Privacy Policy to learn more. By continuing to use the site, you agree to this use of cookies and data.

Stündliche Wetter Maturín

Heute, 12 Juli, Sonntag

Zeit Temperatur Niederschläge Wind Luftdruck Luftfeuchtigkeit
00:00 +25°C° 0 mm 1 m/S 756 mmHg 96%
01:00 +25°C° 0 mm 1 m/S 755 mmHg 97%
02:00 +25°C° 0 mm 1 m/S 755 mmHg 97%
03:00 +25°C° 0.1 mm 1 m/S 755 mmHg 97%
04:00 +25°C° 0.1 mm 1 m/S 755 mmHg 97%
05:00 +25°C° 0.1 mm 1 m/S 755 mmHg 97%
06:00 +26°C° 0.2 mm 1 m/S 756 mmHg 94%
07:00 +27°C° 0.2 mm 1 m/S 756 mmHg 91%
08:00 +28°C° 0.2 mm 1 m/S 757 mmHg 87%
09:00 +29°C° 0.7 mm 2 m/S 756 mmHg 83%
10:00 +30°C° 0.7 mm 2 m/S 756 mmHg 79%
11:00 +31°C° 0.7 mm 2 m/S 756 mmHg 74%
12:00 +31°C° 1 mm 2 m/S 756 mmHg 73%
13:00 +32°C° 1 mm 2 m/S 756 mmHg 71%
14:00 +32°C° 1 mm 2 m/S 755 mmHg 69%
15:00 +31°C° 0.9 mm 2 m/S 755 mmHg 73%
16:00 +31°C° 0.9 mm 2 m/S 754 mmHg 76%
17:00 +30°C° 0.9 mm 2 m/S 754 mmHg 80%
18:00 +29°C° 0.1 mm 2 m/S 754 mmHg 84%
19:00 +28°C° 0.1 mm 2 m/S 755 mmHg 88%
20:00 +27°C° 0.1 mm 2 m/S 756 mmHg 93%
21:00 +26°C° 0 mm 2 m/S 756 mmHg 94%
22:00 +26°C° 0 mm 1 m/S 756 mmHg 94%
23:00 +26°C° 0 mm 1 m/S 757 mmHg 95%

Morgen, 13 Juli, Montag

Zeit Temperatur Niederschläge Wind Luftdruck Luftfeuchtigkeit
00:00 +25°C° 0 mm 1 m/S 756 mmHg 95%
01:00 +25°C° 0 mm 1 m/S 756 mmHg 96%
02:00 +25°C° 0 mm 1 m/S 756 mmHg 96%
03:00 +25°C° 0 mm 1 m/S 756 mmHg 96%
04:00 +25°C° 0 mm 1 m/S 756 mmHg 97%
05:00 +25°C° 0 mm 1 m/S 756 mmHg 97%
06:00 +26°C° 0 mm 1 m/S 756 mmHg 94%
07:00 +27°C° 0 mm 2 m/S 756 mmHg 91%
08:00 +28°C° 0 mm 2 m/S 757 mmHg 88%
09:00 +29°C° 0.4 mm 2 m/S 757 mmHg 85%
10:00 +29°C° 0.4 mm 2 m/S 757 mmHg 82%
11:00 +30°C° 0.4 mm 2 m/S 757 mmHg 78%
12:00 +31°C° 0.8 mm 2 m/S 756 mmHg 78%
13:00 +31°C° 0.8 mm 3 m/S 756 mmHg 77%
14:00 +31°C° 0.8 mm 3 m/S 755 mmHg 77%
15:00 +31°C° 0.6 mm 3 m/S 755 mmHg 79%
16:00 +30°C° 0.6 mm 3 m/S 755 mmHg 81%
17:00 +29°C° 0.6 mm 3 m/S 754 mmHg 83%
18:00 +29°C° 0.1 mm 2 m/S 755 mmHg 87%
19:00 +28°C° 0.1 mm 2 m/S 755 mmHg 91%
20:00 +27°C° 0.1 mm 2 m/S 756 mmHg 95%
21:00 +26°C° 0.1 mm 1 m/S 756 mmHg 96%
22:00 +26°C° 0.1 mm 1 m/S 757 mmHg 97%
23:00 +26°C° 0.1 mm 1 m/S 757 mmHg 97%

übermorgen, 14 Juli, Dienstag

Zeit Temperatur Niederschläge Wind Luftdruck Luftfeuchtigkeit
00:00 +26°C° 0.1 mm 1 m/S 757 mmHg 97%
01:00 +26°C° 0.1 mm 1 m/S 756 mmHg 97%
02:00 +26°C° 0.1 mm 1 m/S 756 mmHg 97%
03:00 +25°C° 0.2 mm 1 m/S 756 mmHg 97%
04:00 +25°C° 0.2 mm 1 m/S 756 mmHg 97%
05:00 +25°C° 0.2 mm 1 m/S 756 mmHg 97%
06:00 +26°C° 0.1 mm 1 m/S 756 mmHg 94%
07:00 +27°C° 0.1 mm 1 m/S 757 mmHg 91%
08:00 +28°C° 0.1 mm 2 m/S 757 mmHg 88%
09:00 +29°C° 0.2 mm 2 m/S 757 mmHg 82%
10:00 +31°C° 0.2 mm 2 m/S 757 mmHg 75%
11:00 +32°C° 0.2 mm 2 m/S 757 mmHg 68%
12:00 +33°C° 0.2 mm 3 m/S 756 mmHg 66%
13:00 +34°C° 0.2 mm 3 m/S 756 mmHg 65%
14:00 +34°C° 0.2 mm 3 m/S 755 mmHg 63%
15:00 +33°C° 0.3 mm 3 m/S 755 mmHg 66%
16:00 +33°C° 0.3 mm 3 m/S 755 mmHg 69%
17:00 +31°C° 0.3 mm 3 m/S 754 mmHg 72%
18:00 +30°C° 0.1 mm 3 m/S 755 mmHg 79%
19:00 +28°C° 0.1 mm 2 m/S 755 mmHg 86%
20:00 +26°C° 0.1 mm 2 m/S 756 mmHg 93%
21:00 +26°C° 0 mm 1 m/S 756 mmHg 94%
22:00 +26°C° 0 mm 1 m/S 757 mmHg 95%
23:00 +25°C° 0 mm 1 m/S 757 mmHg 96%

15 Juli, Mittwoch

Zeit Temperatur Niederschläge Wind Luftdruck Luftfeuchtigkeit
00:00 +25°C° 0 mm 1 m/S 756 mmHg 97%
01:00 +25°C° 0 mm 1 m/S 756 mmHg 97%
02:00 +25°C° 0 mm 1 m/S 755 mmHg 98%
03:00 +25°C° 0 mm 1 m/S 755 mmHg 98%
04:00 +25°C° 0 mm 1 m/S 755 mmHg 98%
05:00 +24°C° 0 mm 1 m/S 755 mmHg 98%
06:00 +25°C° 0 mm 1 m/S 756 mmHg 95%
07:00 +26°C° 0 mm 1 m/S 756 mmHg 92%
08:00 +27°C° 0 mm 1 m/S 757 mmHg 89%
09:00 +29°C° 0.2 mm 1 m/S 757 mmHg 82%
10:00 +30°C° 0.2 mm 1 m/S 757 mmHg 74%
11:00 +32°C° 0.2 mm 2 m/S 757 mmHg 67%
12:00 +32°C° 0.2 mm 2 m/S 756 mmHg 64%
13:00 +34°C° 0.2 mm 2 m/S 755 mmHg 61%
14:00 +34°C° 0.2 mm 2 m/S 754 mmHg 58%
15:00 +34°C° 0.3 mm 2 m/S 754 mmHg 63%
16:00 +32°C° 0.3 mm 2 m/S 754 mmHg 68%
17:00 +31°C° 0.3 mm 2 m/S 753 mmHg 72%
18:00 +29°C° 0.2 mm 2 m/S 754 mmHg 79%
19:00 +28°C° 0.2 mm 2 m/S 755 mmHg 85%
20:00 +26°C° 0.2 mm 2 m/S 755 mmHg 92%
21:00 +26°C° 0 mm 2 m/S 756 mmHg 93%
22:00 +25°C° 0 mm 1 m/S 756 mmHg 94%
23:00 +25°C° 0 mm 1 m/S 756 mmHg 95%

16 Juli, Donnerstag

Zeit Temperatur Niederschläge Wind Luftdruck Luftfeuchtigkeit
00:00 +25°C° 0 mm 1 m/S 756 mmHg 96%
01:00 +25°C° 0 mm 1 m/S 755 mmHg 97%
02:00 +24°C° 0 mm 1 m/S 755 mmHg 98%
03:00 +24°C° 0 mm 1 m/S 755 mmHg 98%
04:00 +24°C° 0 mm 1 m/S 755 mmHg 98%
05:00 +24°C° 0 mm 1 m/S 755 mmHg 98%
06:00 +25°C° 0 mm 1 m/S 756 mmHg 94%
07:00 +26°C° 0 mm 1 m/S 756 mmHg 91%
08:00 +28°C° 0 mm 1 m/S 757 mmHg 88%
09:00 +29°C° 0.2 mm 2 m/S 757 mmHg 81%
10:00 +30°C° 0.2 mm 2 m/S 757 mmHg 73%
11:00 +32°C° 0.2 mm 2 m/S 757 mmHg 66%
12:00 +32°C° 0.4 mm 2 m/S 756 mmHg 66%
13:00 +33°C° 0.4 mm 3 m/S 755 mmHg 66%
14:00 +33°C° 0.4 mm 3 m/S 755 mmHg 66%
15:00 +31°C° 0.6 mm 3 m/S 754 mmHg 71%
16:00 +31°C° 0.6 mm 3 m/S 754 mmHg 76%
17:00 +30°C° 0.6 mm 2 m/S 754 mmHg 80%
18:00 +29°C° 0 mm 2 m/S 754 mmHg 84%
19:00 +27°C° 0 mm 2 m/S 755 mmHg 87%
20:00 +26°C° 0 mm 2 m/S 755 mmHg 91%
21:00 +26°C° 0 mm 2 m/S 756 mmHg 92%
22:00 +26°C° 0 mm 2 m/S 756 mmHg 93%
23:00 +25°C° 0 mm 2 m/S 757 mmHg 95%

17 Juli, Freitag

Zeit Temperatur Niederschläge Wind Luftdruck Luftfeuchtigkeit
00:00 +25°C° 0 mm 1 m/S 756 mmHg 96%
01:00 +25°C° 0 mm 1 m/S 756 mmHg 97%
02:00 +24°C° 0 mm 1 m/S 755 mmHg 98%
03:00 +24°C° 0 mm 1 m/S 755 mmHg 98%
04:00 +24°C° 0 mm 1 m/S 756 mmHg 98%
05:00 +24°C° 0 mm 1 m/S 756 mmHg 98%
06:00 +25°C° 0.1 mm 1 m/S 756 mmHg 94%
07:00 +27°C° 0.1 mm 1 m/S 756 mmHg 91%
08:00 +28°C° 0.1 mm 1 m/S 757 mmHg 87%
09:00 +29°C° 0.1 mm 1 m/S 756 mmHg 79%
10:00 +31°C° 0.1 mm 2 m/S 756 mmHg 70%
11:00 +32°C° 0.1 mm 2 m/S 756 mmHg 61%
12:00 +32°C° 0.2 mm 2 m/S 756 mmHg 61%
13:00 +34°C° 0.2 mm 2 m/S 755 mmHg 61%
14:00 +34°C° 0.2 mm 2 m/S 754 mmHg 61%
15:00 +32°C° 0.3 mm 2 m/S 754 mmHg 65%
16:00 +31°C° 0.3 mm 3 m/S 754 mmHg 70%
17:00 +31°C° 0.3 mm 3 m/S 753 mmHg 74%
18:00 +29°C° 0 mm 2 m/S 754 mmHg 79%
19:00 +28°C° 0 mm 2 m/S 754 mmHg 83%
20:00 +27°C° 0 mm 2 m/S 755 mmHg 88%
21:00 +26°C° 0 mm 2 m/S 755 mmHg 89%
22:00 +26°C° 0 mm 1 m/S 756 mmHg 90%
23:00 +25°C° 0 mm 1 m/S 756 mmHg 91%
Mehr zeigen